Wind_Speed
27 26 26 27 28 28 30 31 31 30 31 33 34 34 37 40 40 39 38 35 31 30 29 28 29 30 30 32 34 37 36 32 29 29 28 26 24 23 22 22 21 22 24 24
28 30 31 31 31 31 31 31 30 29 31 32 32 32 35 39 39 39 40 38 35 33 31 29 29 30 28 30 35 39 37 35 35 35 33 30 27 25 24 24 24 25 26 27
29 30 32 32 33 34 34 33 32 31 32 32 32 32 35 38 39 39 40 40 40 40 39 38 39 37 35 34 35 36 36 38 41 42 38 32 28 25 26 27 27 27 29 29
29 31 32 32 32 34 35 36 36 35 34 35 36 37 37 38 39 41 40 41 40 40 41 41 41 40 37 37 38 38 38 40 41 42 38 32 27 25 28 30 30 30 32 32
24 29 33 32 29 31 31 32 35 33 34 36 40 42 41 41 41 41 41 41 40 39 37 34 33 33 35 38 41 42 40 39 38 34 31 28 27 28 30 31 32 32 33 34
19 24 27 27 26 26 26 28 29 28 29 33 36 40 42 38 38 39 42 43 40 37 33 33 32 31 32 35 39 42 40 39 39 39 36 33 32 32 31 31 33 34 35 36
18 24 25 25 24 24 26 27 26 25 26 27 26 33 38 34 30 31 34 36 36 34 32 32 31 30 31 31 32 34 38 40 41 41 38 35 34 33 33 34 36 38 39 39
11 16 20 22 22 24 26 27 27 26 25 24 24 29 30 28 24 23 26 29 32 33 33 33 32 32 32 32 30 29 32 36 38 38 37 36 36 37 38 39 40 41 41 41
7 10 14 17 21 24 24 25 27 28 28 26 26 28 28 27 24 22 23 25 28 32 34 36 36 33 30 28 29 27 27 28 31 32 35 37 40 41 41 39 40 41 41 40
11 10 11 14 19 23 23 22 24 25 27 26 27 28 28 27 27 27 29 29 30 31 33 36 37 33 29 27 25 25 25 27 30 32 34 35 36 37 38 37 37 37 38 37
23 22 20 20 21 22 20 21 22 22 23 23 24 26 26 25 25 27 31 33 33 33 33 32 30 26 22 21 23 26 28 29 30 32 32 33 33 34 35 35 35 36 36 36
30 30 30 27 26 26 25 24 24 23 21 23 25 27 26 22 23 24 26 28 27 23 23 21 18 17 21 25 28 31 32 32 33 33 32 32 33 33 33 34 35 35 34 33
33 33 32 29 26 26 28 28 26 25 25 26 29 31 28 26 26 27 28 29 29 28 27 27 27 28 29 30 31 32 32 33 34 35 35 35 35 34 33 34 34 33 32 31
30 30 30 27 26 26 26 28 29 29 31 34 35 34 32 31 29 30 32 34 35 35 35 34 33 33 33 33 33 33 32 32 34 35 35 35 36 35 33 32 32 32 30 29
23 23 22 22 25 28 31 31 30 30 30 31 31 31 31 31 33 34 35 36 37 37 36 34 34 34 34 33 33 34 35 33 33 34 35 34 35 34 32 30 30 31 30 28
25 24 21 21 23 28 31 29 30 32 31 28 27 28 29 32 36 38 40 41 40 40 40 40 40 40 39 38 37 36 36 34 33 33 35 34 33 32 30 29 30 30 28 25
21 22 21 20 23 26 32 31 25 23 23 22 23 27 31 36 39 41 41 41 41 41 41 41 41 41 40 39 39 38 37 36 34 33 34 35 34 32 30 29 29 29 27 24
12 12 14 19 22 24 27 29 33 31 27 28 31 35 37 38 37 36 35 34 35 35 36 36 37 37 37 37 37 38 38 37 36 34 34 35 35 34 33 32 31 31 30 28
8 7 8 12 16 19 24 26 26 26 26 28 31 33 33 32 30 29 28 28 28 30 31 32 33 33 33 34 34 35 35 34 33 33 33 34 35 34 33 34 34 35 35 34
11 12 10 12 15 17 17 19 20 19 17 17 18 21 23 23 23 22 23 24 25 26 27 26 25 26 27 27 28 29 30 29 28 28 28 30 32 32 32 33 34 36 38 39
10 11 10 11 13 15 16 16 16 16 17 16 16 17 17 18 19 21 22 23 24 24 25 24 20 19 20 20 20 21 23 25 26 26 26 27 27 28 28 29 32 33 32 33
13 11 11 11 11 12 13 13 14 15 14 14 14 14 15 15 17 18 20 21 22 22 22 20 17 16 17 17 17 17 16 17 19 22 25 26 26 27 27 28 30 33 31 29
9 8 9 8 7 8 9 11 12 12 12 13 13 14 14 14 16 18 20 21 21 20 19 16 14 13 15 17 18 17 15 14 15 17 19 21 23 23 23 23 24 25 26 25
9 8 9 9 4 3 4 6 7 8 9 11 11 12 13 15 17 19 20 20 18 16 15 14 13 13 14 14 15 17 16 15 17 18 19 20 22 24 24 24 22 22 21 21
12 10 10 9 7 4 5 7 9 10 11 12 13 14 16 18 19 19 18 16 15 14 14 13 13 14 16 18 20 21 21 21 22 23 25 26 26 27 27 26 24 24 23 22
15 13 12 11 11 9 7 7 9 10 11 12 13 14 15 16 16 17 16 16 15 15 15 15 16 18 18 19 20 22 24 26 28 30 31 31 30 28 28 28 28 27 27 26
Wind_Direction
227 227 227 228 228 228 233 237 240 243 245 248 253 257 258 255 255 258 261 264 266 268 265 262 262 262 260 259 262 266 268 269 271 271 270 272 272 272 272 272 274 274 273 275
230 230 231 233 236 238 241 245 248 252 252 253 254 255 260 263 263 264 266 267 266 266 268 267 268 269 269 265 263 261 262 266 270 268 265 265 268 272 274 273 270 268 268 272
234 235 236 237 241 245 248 250 252 254 254 254 252 249 252 258 262 265 268 271 271 270 269 268 266 267 267 265 261 259 264 270 273 267 259 257 261 270 274 272 268 264 265 269
238 238 240 241 246 250 253 255 254 251 249 246 247 242 243 249 258 265 267 267 269 271 271 270 268 266 264 261 256 258 267 272 271 263 253 250 256 268 273 270 265 263 266 272
244 242 240 237 238 245 250 252 252 249 246 245 247 249 248 248 255 264 269 268 269 271 269 267 266 264 261 257 255 260 265 266 264 259 252 260 273 277 273 266 261 261 266 271
247 245 248 242 237 243 248 251 254 251 244 243 244 250 257 256 257 260 263 266 266 265 263 263 265 263 257 253 253 254 256 255 258 262 266 272 276 275 272 267 266 269 273 275
260 251 247 242 237 240 243 246 252 252 247 247 245 247 255 261 264 263 261 259 256 254 256 259 261 259 258 254 253 251 249 248 253 261 265 268 269 269 267 267 270 272 273 274
255 239 235 236 239 243 244 242 244 248 248 246 244 247 254 261 263 263 259 256 253 252 255 256 257 256 259 263 266 267 263 260 262 263 263 263 264 265 266 268 270 271 270 270
257 249 248 246 241 242 243 243 243 246 247 247 246 250 254 255 258 261 264 262 259 258 258 258 255 253 259 267 268 272 271 267 265 265 265 264 265 266 266 266 267 268 268 269
268 272 279 274 253 245 243 239 239 246 250 249 247 250 253 254 255 258 261 262 263 264 263 262 255 256 259 261 260 263 264 262 264 265 265 266 268 267 267 267 267 268 268 270
277 276 278 277 269 254 245 239 237 244 250 250 249 248 248 246 246 252 256 260 264 265 265 264 254 252 250 254 259 261 264 265 265 267 268 268 269 269 269 270 272 273 272 273
279 279 276 270 263 256 249 246 240 241 247 249 246 243 242 243 246 251 252 250 254 260 258 255 254 262 269 272 271 270 268 265 262 262 265 267 268 269 271 271 273 274 272 271
279 280 279 273 262 253 249 245 245 247 249 249 248 249 251 253 254 251 248 250 256 265 272 275 278 281 280 278 276 274 272 266 261 260 262 264 264 266 270 271 270 271 271 270
279 280 278 273 259 247 242 242 246 253 256 252 251 253 256 258 258 256 255 260 268 275 278 278 280 281 280 278 275 274 274 270 264 261 262 263 263 263 267 268 267 266 269 271
272 271 272 269 254 244 242 244 247 251 253 250 250 253 258 261 263 266 269 271 275 278 280 280 281 278 276 276 277 276 274 271 265 260 260 262 262 261 264 264 262 263 266 268
267 262 261 262 252 242 242 248 253 254 253 251 252 256 263 268 271 273 274 275 277 278 278 280 281 279 277 275 274 274 273 270 266 260 257 259 260 259 260 260 258 258 261 261
270 264 255 248 247 244 242 240 239 238 234 241 250 261 268 272 273 276 277 277 278 277 275 276 277 277 276 274 272 270 268 268 266 263 257 256 256 257 256 255 254 253 254 254
272 264 252 242 240 241 242 243 244 249 258 264 271 274 277 279 279 281 281 281 280 277 275 274 273 273 272 269 267 264 263 262 261 259 256 253 253 252 252 251 251 248 249 250
262 278 271 256 248 245 238 238 245 254 264 270 271 272 275 278 279 279 280 282 283 284 284 282 278 273 268 264 261 260 259 259 256 254 252 249 250 249 248 246 244 243 244 244
305 311 300 271 253 245 248 252 258 261 266 268 269 269 269 271 274 279 283 285 286 288 291 293 285 272 263 258 255 253 253 253 251 248 246 246 246 247 247 244 241 237 238 240
327 318 298 281 273 264 263 267 269 272 272 270 270 269 267 269 277 283 285 285 285 287 293 297 289 270 258 253 253 253 252 249 244 241 238 236 237 240 241 240 237 236 238 240
320 319 316 300 285 282 269 270 283 286 278 272 271 270 271 281 291 295 294 289 287 289 294 294 284 267 256 254 254 252 250 245 239 236 234 231 231 236 240 245 246 248 252 254
1 3 358 338 307 294 291 290 293 295 290 285 279 273 274 284 295 299 297 293 289 290 290 288 280 271 262 254 246 243 245 244 243 240 237 236 237 243 251 260 263 263 263 260
8 6 2 1 350 291 271 275 282 287 291 288 281 275 278 287 293 296 294 292 290 290 288 283 275 268 261 249 238 235 236 246 246 246 247 246 250 257 263 267 265 263 261 262
14 14 4 357 357 331 286 282 287 293 298 296 291 290 293 294 294 294 293 292 289 288 289 286 282 273 265 260 258 255 253 253 247 245 246 248 252 256 258 257 255 255 259 261
26 22 17 11 8 5 349 323 310 308 307 303 300 299 299 299 298 295 293 291 288 287 287 286 286 285 281 276 271 265 258 255 253 250 248 250 251 251 250 250 252 254 257 255
Height
5827 5831 5832 5834 5836 5839 5840 5844 5847 5850 5852 5853 5854 5854 5855 5858 5861 5862 5864 5866 5869 5872 5874 5877 5879 5880 5882 5885 5885 5883 5883 5883 5883 5883 5883 5884 5885 5886 5885 5884 5884 5883 5882 5882
5823 5825 5827 5829 5831 5834 5836 5839 5843 5845 5845 5847 5847 5848 5847 5849 5852 5853 5854 5857 5860 5863 5865 5868 5870 5871 5873 5875 5875 5874 5874 5874 5874 5874 5874 5875 5877 5878 5878 5878 5878 5877 5876 5876
5816 5819 5821 5823 5825 5827 5830 5832 5835 5837 5839 5840 5842 5843 5842 5843 5845 5846 5848 5849 5851 5854 5856 5858 5860 5862 5864 5865 5865 5864 5865 5865 5865 5865 5865 5866 5869 5871 5872 5872 5871 5870 5870 5869
5810 5812 5814 5817 5819 5820 5822 5824 5827 5830 5832 5834 5835 5836 5837 5837 5837 5839 5841 5842 5844 5845 5846 5847 5849 5852 5855 5857 5857 5857 5857 5857 5856 5855 5856 5858 5860 5863 5865 5865 5864 5864 5864 5863
5806 5806 5806 5808 5811 5812 5815 5816 5817 5821 5824 5826 5827 5828 5831 5831 5832 5833 5834 5835 5837 5838 5839 5839 5841 5844 5846 5848 5849 5849 5848 5848 5848 5846 5848 5850 5852 5855 5857 5858 5858 5858 5858 5857
5800 5801 5802 5804 5804 5806 5808 5809 5810 5813 5815 5817 5820 5820 5820 5823 5826 5827 5827 5827 5829 5830 5831 5831 5832 5834 5835 5837 5838 5838 5838 5838 5837 5838 5839 5841 5844 5847 5849 5851 5851 5851 5850 5849
5793 5794 5796 5798 5798 5799 5801 5804 5805 5806 5808 5810 5813 5812 5811 5813 5816 5818 5818 5818 5820 5821 5822 5821 5822 5823 5825 5825 5825 5827 5827 5828 5828 5829 5831 5834 5836 5839 5841 5842 5843 5842 5842 5841
5788 5790 5792 5793 5794 5794 5795 5798 5800 5801 5803 5804 5805 5804 5805 5806 5807 5808 5808 5809 5811 5812 5813 5813 5814 5814 5815 5815 5817 5818 5819 5819 5820 5822 5825 5827 5829 5831 5832 5832 5833 5832 5832 5831
5785 5788 5789 5789 5789 5790 5791 5793 5794 5795 5795 5798 5798 5798 5798 5799 5800 5801 5801 5803 5804 5805 5806 5806 5806 5806 5807 5808 5810 5812 5813 5814 5814 5816 5817 5819 5820 5821 5822 5822 5822 5822 5821 5821
5783 5784 5784 5784 5784 5784 5786 5787 5788 5788 5789 5790 5792 5792 5792 5792 5793 5794 5794 5795 5797 5798 5798 5798 5798 5799 5801 5803 5805 5807 5808 5808 5808 5808 5809 5810 5811 5812 5812 5812 5811 5811 5811 5811
5777 5778 5779 5779 5779 5778 5780 5781 5781 5781 5782 5784 5785 5787 5785 5786 5786 5787 5787 5788 5790 5791 5791 5790 5790 5791 5794 5797 5799 5801 5801 5800 5800 5800 5800 5801 5802 5803 5803 5803 5803 5803 5803 5802
5768 5769 5770 5772 5772 5772 5773 5774 5774 5775 5776 5777 5778 5780 5778 5781 5781 5781 5782 5783 5784 5784 5785 5785 5785 5787 5789 5790 5791 5791 5791 5791 5791 5791 5791 5792 5793 5794 5794 5795 5796 5795 5795 5794
5762 5762 5761 5762 5765 5765 5764 5765 5766 5767 5768 5770 5770 5773 5774 5775 5776 5776 5776 5776 5777 5778 5779 5779 5779 5780 5780 5781 5781 5781 5782 5781 5781 5782 5782 5783 5784 5785 5786 5786 5787 5787 5786 5786
5756 5755 5754 5754 5753 5754 5755 5757 5758 5759 5760 5761 5763 5765 5767 5768 5768 5769 5769 5769 5768 5769 5770 5771 5772 5772 5772 5772 5772 5772 5772 5772 5772 5773 5773 5774 5775 5776 5777 5778 5779 5779 5779 5778
5748 5748 5746 5744 5744 5746 5748 5749 5750 5752 5752 5754 5756 5757 5759 5760 5760 5760 5760 5760 5760 5760 5761 5762 5762 5763 5763 5763 5763 5762 5762 5762 5762 5763 5764 5765 5766 5767 5768 5769 5770 5771 5771 5771
5740 5740 5740 5738 5737 5739 5741 5743 5743 5744 5746 5747 5749 5750 5751 5751 5752 5752 5752 5752 5752 5752 5751 5751 5751 5751 5752 5752 5752 5752 5752 5752 5753 5754 5755 5756 5757 5758 5759 5761 5762 5763 5764 5763
5732 5732 5733 5733 5732 5733 5735 5737 5738 5738 5738 5740 5741 5743 5743 5744 5744 5743 5743 5743 5742 5742 5741 5741 5740 5739 5739 5739 5739 5739 5740 5741 5743 5744 5746 5747 5748 5749 5750 5752 5753 5754 5756 5756
5726 5726 5726 5727 5728 5728 5731 5730 5731 5732 5732 5733 5734 5735 5735 5736 5735 5734 5733 5732 5731 5730 5730 5729 5728 5728 5727 5727 5727 5728 5729 5730 5732 5733 5735 5736 5738 5740 5742 5743 5744 5746 5747 5748
5724 5724 5723 5723 5723 5723 5724 5725 5726 5727 5728 5728 5728 5728 5728 5728 5728 5726 5725 5723 5722 5721 5719 5718 5716 5715 5715 5716 5717 5717 5718 5719 5721 5722 5724 5726 5728 5731 5732 5734 5736 5737 5738 5740
5721 5721 5721 5720 5720 5720 5721 5721 5721 5723 5724 5724 5723 5723 5722 5721 5721 5720 5718 5716 5715 5713 5711 5709 5707 5706 5706 5707 5708 5708 5709 5711 5712 5714 5715 5717 5719 5721 5723 5725 5726 5728 5729 5731
5718 5717 5716 5716 5716 5716 5717 5717 5717 5720 5719 5719 5718 5717 5716 5715 5715 5714 5712 5710 5708 5706 5704 5703 5701 5700 5700 5701 5701 5702 5703 5704 5705 5707 5708 5710 5711 5712 5714 5716 5718 5719 5720 5722
5715 5714 5713 5712 5711 5714 5712 5713 5714 5713 5713 5712 5711 5711 5710 5709 5708 5706 5705 5703 5702 5700 5699 5697 5696 5695 5696 5696 5696 5697 5698 5698 5699 5701 5702 5704 5704 5705 5706 5708 5709 5710 5711 5712
5713 5713 5711 5710 5710 5708 5708 5708 5708 5707 5707 5707 5706 5706 5705 5704 5702 5700 5699 5697 5696 5695 5693 5692 5692 5691 5692 5692 5692 5693 5693 5694 5695 5696 5697 5698 5698 5699 5699 5700 5700 5701 5702 5703
5714 5711 5709 5707 5706 5705 5704 5704 5704 5703 5702 5702 5701 5700 5699 5698 5696 5695 5693 5691 5689 5688 5688 5687 5687 5688 5688 5688 5689 5689 5689 5690 5690 5691 5691 5692 5693 5693 5693 5693 5692 5693 5694 5695
5713 5710 5707 5705 5703 5702 5701 5700 5699 5698 5698 5696 5695 5695 5694 5692 5691 5689 5688 5686 5685 5684 5683 5683 5683 5683 5683 5684 5684 5684 5684 5685 5685 5685 5685 5686 5686 5686 5686 5686 5686 5686 5686 5687
5712 5710 5707 5705 5702 5700 5699 5697 5696 5695 5694 5692 5691 5690 5688 5687 5685 5684 5683 5682 5681 5680 5679 5679 5678 5678 5677 5677 5677 5677 5677 5677 5678 5678 5678 5678 5678 5679 5678 5678 5678 5678 5679 5679